{"data":{"norad_id":67652,"intl_designator":"2026-022E","name":"STARLINK-36699","alt_names":[],"object_type":"PAYLOAD","status":"ACTIVE","operator":null,"country":"US","launch_date":"2026-02-02","launch_site_code":"AFWTR","launch_vehicle":null,"mission":null,"orbit_class":"UNKNOWN","rcs_meters":null,"size_class":null,"mass_kg":null,"dimensions":null,"purposes":["comms"],"wikipedia_slug":null,"has_3d_model":false,"image_url":null,"decayed_at":null,"tle_current":{"epoch":"2026-09-19T00:35:48.762816Z","epoch_age_seconds":196802,"freshness":"STALE","line1":"1 67652U 26022E   26262.02486994  .00008874  00000+0  27681-3 0  9991","line2":"2 67652  97.2857 293.6442 0001211  74.0085 286.1291 15.33451014 35201","mean_motion":15.33451014,"eccentricity":0.0001211,"inclination_deg":97.2857,"raan_deg":293.6442,"arg_perigee_deg":74.0085,"mean_anomaly_deg":286.1291,"bstar":0.00027681,"rev_number":3520,"period_min":93.905836368634,"perigee_km":464.69651360158,"apogee_km":466.35404860606,"semimajor_km":6843.6622811038,"source":"CELESTRAK","updated_at":"2026-09-20T09:00:43.618762Z"}}}